Vertical_Velocity
0 10 -4 -2 49 21 3 -1 -2 -1 2 3 4 1 1 2 2 1 -17 3 3 1 3 1 0 -0 -1 -3 -0 -0 -6 -0 0 -0 -2 0 -0 0 1 -1 -2 1 1 7 11
2 -3 -29 1 -7 15 2 1 -3 -2 2 2 3 3 0 -0 6 -9 6 2 4 1 -1 -2 -0 -2 -5 -1 -2 -6 -3 -0 0 0 0 0 -0 -0 -1 -1 -1 1 -0 -2 1
-1 14 -6 -5 6 4 4 1 -8 -0 0 4 2 -3 2 2 -2 -4 -0 -2 -3 -1 -2 -4 0 -3 -4 0 -0 1 -2 -0 1 -0 -0 -0 -1 -1 0 -2 -3 -2 -1 3 -0
0 -4 -3 2 -5 -3 4 2 -4 -5 -1 1 -1 1 -2 -2 -10 -0 3 1 -0 -1 0 -0 -1 -2 -2 -1 0 -4 1 1 1 -0 -1 -1 -0 -2 2 -8 0 2 2 -2 -1
4 3 4 -1 1 1 -7 -5 0 -3 1 1 -1 1 2 -12 2 2 2 -0 -1 1 -3 -2 -4 0 -1 -1 -1 -2 0 -0 1 1 -1 2 -2 -4 -8 0 2 -1 -1 -1 -1
2 -4 -5 -0 4 2 1 -2 1 1 -3 -2 -1 -1 -5 -12 2 0 1 0 -2 -1 -1 -2 -1 2 -2 -0 -3 0 -0 -1 -1 -0 0 1 -1 1 -2 -1 -1 -1 -3 -3 -3
-0 5 4 3 -4 -2 4 -2 -2 -3 2 2 -1 -2 -8 7 1 1 -0 -4 -0 -1 -3 -2 -2 -0 2 -0 1 0 -3 -2 0 -1 -1 2 0 -1 1 -1 1 0 -1 -1 -2
-0 -2 -7 -4 -3 3 1 -3 -2 4 3 -1 -2 1 -6 3 1 -4 -0 -1 -3 -1 -3 -2 -0 -5 -3 0 -1 -2 -5 -2 -2 0 -1 -4 -7 -2 0 3 -2 -2 -3 3 1
2 0 -3 -2 -0 -2 -3 -2 2 1 1 -2 -7 -4 -1 1 -5 -1 2 -1 -2 -1 -2 -1 -3 -1 -1 -3 -5 -4 -1 -0 -1 2 0 -0 -3 -5 2 2 -6 -1 2 0 1
2 -2 -6 -4 -2 0 -0 -0 -2 -2 -2 -4 0 -8 -5 -2 -1 -0 2 -0 -4 -1 -3 -7 -5 -3 -3 -5 -5 -1 -1 -1 -0 -2 -2 -1 -5 -4 -7 3 -1 3 -1 0 -1
-2 2 3 4 -0 -2 -2 -4 -7 -21 -17 2 1 -1 -1 -2 1 -1 -2 -1 -2 -4 -3 -1 -12 -1 0 -0 -1 -0 0 0 -2 -0 2 -1 -1 -5 -6 3 1 -0 0 -0 -4
-5 -3 -1 -4 -4 -1 -1 -5 -1 -4 -4 4 -2 -3 -1 -3 -3 -3 -0 -4 -5 -1 -0 -11 -2 -1 -0 -0 -1 -0 0 -2 -4 -1 1 -1 -6 -3 0 2 -2 1 -1 -4 -5
1 -3 -3 0 3 3 -4 -7 -2 -1 -5 2 -1 -2 -2 -1 -1 -1 1 -0 -2 -2 -0 -4 -5 0 -0 -0 -1 -1 -0 -0 -1 -3 -1 -0 -4 0 2 0 2 1 -0 -0 0
-0 -3 -4 -1 -0 -3 -3 1 2 1 -11 -9 -5 -1 -1 -0 -3 2 -1 -1 -2 -1 -0 -1 -1 -0 0 0 -3 0 -0 0 -0 -4 -3 -4 -8 -2 -0 0 -0 -2 -3 -2 -3
1 -1 -1 -1 -4 -3 -1 0 -0 -2 -15 -19 -6 -3 -1 -3 -0 -3 -1 -1 -0 -0 -7 -5 0 0 1 -1 -1 -6 1 1 -0 1 -2 -2 -6 -13 1 0 -2 -2 -0 -3 -2
-0 -1 -0 -2 -2 -2 -2 -2 -1 -30 -14 -8 0 -2 -4 -2 -0 0 -1 -1 -0 -1 -1 -0 0 -1 -2 0 -0 0 -3 -2 -1 -1 -4 -2 -5 -9 -2 -5 -1 -2 -3 -2 -2
-0 0 1 -0 -1 0 0 0 -20 -15 -9 -8 -2 -1 -0 -1 -3 -3 -2 -4 -4 -7 -4 -4 -1 0 -0 -1 -2 -5 -5 -5 -9 -3 -7 -0 -3 -15 -2 -1 -3 -2 -3 -4 1
-1 -1 -2 -1 0 -2 1 -14 -15 -4 -1 -2 -0 -1 -1 -0 0 -1 -0 -2 -1 -2 -2 -2 -15 -2 -0 -2 -5 -0 -5 -7 -4 -2 -5 -2 -5 -20 -4 -1 -1 -1 -1 -4 0
-3 -1 -1 -2 -1 0 -1 -8 -9 -2 -2 -1 -3 -4 -2 0 -3 -3 -0 -1 -1 -1 -6 -2 -6 -1 0 -0 -8 -8 -3 -5 -3 -1 3 -4 -10 -7 1 -0 -0 -2 -1 -2 -1
-3 -3 -3 -0 -3 -1 -9 -2 -1 -0 -0 -0 -2 -4 -1 -1 -5 -4 -2 -3 -0 -0 0 -2 -7 -2 1 -0 1 -6 -5 -4 -1 -1 -2 -5 -2 -8 -1 -3 -2 -1 -3 -1 1
-1 -2 -0 -2 0 -2 -5 -2 -0 1 -1 -1 -0 0 -1 -1 -1 -0 -3 -5 -0 0 0 -1 -7 -11 -1 -2 -5 3 0 1 -1 -2 -4 -1 -11 -5 -3 -3 -2 -3 -3 0 -1
-1 -6 -1 -1 -6 1 -1 1 0 -0 0 -0 -1 0 -0 -0 0 0 -2 -4 -0 -1 -1 -3 -3 -1 -10 -2 -2 -2 -3 -3 -6 -6 -1 -0 -20 -0 -1 -2 -0 -4 -2 -2 3
-2 -2 -1 0 -5 -1 -0 0 0 0 -1 -0 -0 -0 -0 -0 -1 0 -0 -1 -0 -1 -3 -3 -4 -3 -12 -11 -2 1 -1 -1 -1 -2 -3 -4 -18 -1 0 0 -2 -2 -3 0 -1
1 -7 -2 -2 1 -4 -0 -0 -0 -1 -0 1 -1 0 -1 0 -0 -1 -0 -0 1 0 1 0 0 -4 -7 -8 -3 1 0 -0 -3 -1 -4 -8 -6 -6 -2 -1 -4 -4 -0 -2 -2
-2 -0 1 -4 -4 -0 -0 -0 0 -0 -0 0 -2 0 -2 0 -0 -1 -0 0 1 1 1 -2 1 2 -3 -2 3 -1 -1 -1 2 -7 -5 -8 -2 -9 -3 -2 -5 -2 -2 -1 -2
-1 -0 0 0 1 -0 -0 -1 -1 -1 -4 -1 -0 -0 0 -0 -5 -2 -1 -0 -5 2 -0 0 -4 1 -3 -1 1 1 -1 0 -0 -1 2 3 -15 -1 -12 2 -2 -3 -1 -3 -3
-2 -2 -0 1 -0 -2 -3 -1 -2 0 -1 -0 -3 0 1 -7 0 -2 -1 -0 1 -6 -1 -1 -0 -1 -5 0 -1 -0 -6 -2 -1 0 -7 -0 -28 -1 -3 -1 -3 -4 1 -1 -2
Height
1477 1478 1480 1484 1483 1492 1499 1504 1507 1509 1511 1513 1515 1517 1518 1520 1521 1522 1521 1527 1527 1526 1527 1527 1528 1528 1530 1532 1534 1536 1546 1552 1549 1547 1547 1546 1546 1547 1546 1545 1545 1546 1547 1548 1548
1480 1480 1485 1487 1489 1496 1502 1505 1507 1511 1514 1517 1518 1519 1521 1521 1522 1520 1530 1528 1528 1527 1528 1528 1529 1530 1532 1534 1536 1538 1550 1548 1547 1547 1547 1547 1547 1547 1546 1545 1544 1545 1545 1546 1546
1485 1486 1490 1493 1495 1500 1503 1506 1511 1515 1519 1520 1521 1521 1521 1520 1522 1530 1530 1529 1528 1528 1529 1529 1531 1531 1535 1537 1540 1542 1549 1546 1548 1547 1548 1548 1548 1547 1546 1545 1543 1544 1544 1544 1545
1488 1491 1493 1495 1499 1503 1505 1509 1515 1521 1523 1523 1523 1523 1522 1523 1536 1535 1533 1531 1530 1530 1530 1530 1533 1533 1537 1541 1541 1544 1545 1546 1547 1548 1548 1549 1548 1547 1545 1542 1542 1542 1542 1542 1541
1496 1497 1498 1501 1503 1505 1509 1514 1520 1525 1526 1525 1525 1524 1524 1526 1537 1536 1535 1533 1533 1532 1532 1533 1535 1535 1541 1542 1544 1545 1547 1547 1547 1548 1548 1548 1547 1548 1540 1541 1541 1540 1540 1539 1539
1504 1505 1505 1506 1507 1509 1513 1519 1524 1527 1529 1528 1527 1526 1527 1528 1538 1537 1536 1535 1534 1534 1534 1535 1537 1538 1541 1543 1545 1547 1547 1547 1547 1547 1548 1547 1547 1547 1539 1539 1539 1539 1538 1537 1536
1508 1509 1510 1512 1514 1517 1519 1523 1528 1531 1531 1530 1529 1529 1528 1540 1541 1540 1538 1536 1536 1536 1536 1538 1539 1541 1543 1545 1546 1547 1548 1546 1546 1546 1547 1547 1545 1545 1539 1538 1538 1539 1537 1535 1533
1514 1515 1516 1517 1519 1521 1526 1530 1533 1533 1531 1530 1531 1531 1538 1543 1542 1541 1540 1539 1538 1538 1539 1540 1541 1542 1545 1547 1548 1549 1550 1552 1547 1546 1547 1548 1548 1540 1539 1538 1536 1536 1534 1531 1529
1521 1521 1522 1524 1526 1528 1530 1532 1533 1532 1532 1533 1533 1534 1544 1546 1544 1542 1541 1540 1540 1540 1541 1541 1543 1545 1547 1552 1559 1558 1564 1553 1549 1549 1548 1549 1547 1538 1537 1537 1534 1533 1532 1530 1527
1528 1528 1528 1529 1531 1532 1534 1534 1534 1534 1534 1534 1537 1539 1547 1549 1545 1544 1543 1541 1541 1541 1542 1543 1546 1551 1556 1563 1580 1564 1559 1557 1555 1552 1550 1549 1545 1538 1531 1531 1529 1530 1530 1527 1525
1533 1534 1534 1536 1536 1536 1536 1535 1538 1540 1540 1543 1547 1546 1548 1550 1548 1546 1545 1544 1543 1543 1548 1548 1558 1568 1560 1559 1558 1559 1561 1562 1557 1553 1551 1546 1546 1533 1526 1524 1527 1528 1526 1524 1522
1538 1539 1539 1538 1537 1536 1536 1536 1539 1545 1549 1550 1551 1550 1550 1550 1550 1548 1547 1547 1546 1551 1550 1558 1566 1559 1558 1558 1559 1560 1562 1564 1556 1552 1553 1548 1539 1528 1522 1523 1524 1524 1523 1521 1519
1542 1541 1540 1540 1538 1540 1540 1541 1542 1544 1547 1554 1553 1552 1554 1555 1553 1551 1549 1549 1550 1554 1556 1561 1560 1558 1558 1559 1562 1562 1563 1563 1565 1557 1551 1551 1538 1524 1523 1522 1523 1522 1521 1520 1517
1543 1543 1543 1542 1545 1543 1543 1543 1544 1544 1559 1560 1555 1555 1555 1554 1554 1552 1551 1552 1552 1557 1557 1559 1559 1559 1560 1560 1563 1571 1561 1560 1560 1568 1572 1556 1558 1531 1523 1521 1520 1519 1518 1517 1514
1544 1545 1544 1544 1544 1544 1545 1543 1543 1544 1591 1560 1557 1557 1556 1556 1556 1555 1554 1553 1556 1557 1560 1560 1559 1559 1560 1559 1560 1565 1560 1561 1565 1559 1576 1560 1577 1531 1523 1520 1518 1517 1515 1514 1511
1545 1545 1546 1547 1546 1546 1545 1545 1546 1565 1593 1567 1560 1559 1557 1556 1556 1556 1556 1555 1556 1556 1556 1557 1558 1559 1559 1559 1560 1561 1564 1564 1562 1564 1595 1557 1565 1541 1525 1516 1515 1514 1512 1510 1507
1547 1546 1547 1547 1548 1546 1545 1545 1564 1585 1568 1569 1565 1563 1563 1562 1559 1560 1560 1562 1566 1569 1574 1562 1558 1557 1558 1560 1562 1565 1578 1596 1584 1573 1569 1569 1570 1529 1514 1512 1511 1510 1509 1507 1505
1548 1548 1547 1547 1547 1546 1545 1548 1578 1563 1564 1564 1564 1564 1566 1566 1565 1564 1565 1573 1565 1568 1581 1585 1571 1562 1558 1559 1567 1569 1576 1588 1588 1572 1572 1565 1560 1523 1508 1507 1506 1508 1507 1503 1501
1549 1549 1548 1548 1547 1546 1546 1571 1569 1563 1561 1565 1566 1574 1569 1565 1568 1568 1570 1573 1567 1566 1574 1582 1572 1558 1558 1558 1562 1570 1577 1570 1585 1576 1566 1567 1536 1511 1507 1507 1506 1504 1503 1499 1495
1550 1550 1550 1549 1548 1547 1548 1564 1563 1561 1561 1563 1567 1568 1581 1573 1575 1574 1577 1566 1565 1566 1567 1573 1582 1559 1558 1559 1561 1564 1565 1571 1571 1564 1583 1555 1540 1523 1513 1505 1501 1500 1497 1494 1491
1550 1550 1551 1550 1549 1548 1565 1565 1561 1561 1562 1564 1564 1564 1564 1566 1566 1572 1576 1568 1565 1566 1568 1571 1579 1567 1559 1560 1561 1561 1567 1564 1568 1566 1584 1562 1533 1505 1501 1496 1497 1495 1494 1491 1487
1551 1552 1552 1551 1552 1556 1562 1560 1560 1561 1561 1562 1563 1563 1562 1562 1564 1574 1572 1568 1563 1564 1567 1567 1574 1579 1559 1550 1550 1554 1557 1556 1578 1574 1563 1554 1533 1497 1494 1493 1493 1491 1489 1486 1484
1552 1553 1553 1550 1561 1563 1560 1560 1561 1562 1561 1561 1561 1562 1562 1563 1567 1564 1564 1560 1561 1563 1564 1566 1574 1582 1562 1555 1549 1549 1548 1547 1551 1559 1569 1568 1531 1493 1491 1492 1490 1488 1484 1481 1478
1554 1556 1554 1554 1556 1557 1559 1560 1561 1561 1562 1561 1561 1561 1562 1562 1561 1561 1561 1560 1561 1562 1563 1563 1567 1564 1565 1550 1549 1548 1543 1543 1546 1571 1562 1541 1520 1493 1494 1492 1485 1482 1479 1477 1474
1556 1558 1558 1562 1559 1559 1558 1559 1560 1560 1560 1561 1561 1562 1563 1563 1560 1561 1559 1560 1561 1561 1562 1563 1567 1561 1551 1543 1543 1540 1536 1537 1539 1532 1538 1527 1520 1486 1488 1485 1481 1478 1475 1473 1471
1559 1560 1559 1559 1558 1558 1560 1558 1558 1557 1558 1559 1561 1559 1561 1563 1560 1558 1557 1558 1559 1561 1562 1563 1563 1557 1544 1532 1534 1530 1524 1522 1521 1518 1515 1508 1498 1478 1476 1479 1478 1474 1471 1468 1466
1560 1561 1560 1559 1559 1560 1559 1557 1557 1556 1554 1554 1555 1557 1557 1554 1553 1553 1553 1553 1553 1556 1561 1563 1565 1559 1554 1536 1530 1521 1500 1501 1503 1501 1501 1508 1474 1473 1473 1473 1471 1468 1467 1464 1462